Weather History for Nashville, TN

Change the Weather History Date:

Thursday, August 22, 2013

  Actual Average Record
Temperature  
Mean Temperature 81 °F 78 °F  
Max Temperature 92 °F 89 °F 102 °F (2007)
Min Temperature 69 °F 68 °F 53 °F (1956)
Degree Days  
Heating Degree Days 0 0  
Month to date heating degree days 0 0  
Since 1 June heating degree days 0 3  
Since 1 July heating degree days 0 0  
Cooling Degree Days 16 13  
Month to date cooling degree days 263 307  
Year to date cooling degree days 1246 1256  
Since 1 June cooling degree days 1039 1077  
Growing Degree Days 30 (Base 50)    
Moisture  
Dew Point 69 °F    
Average Humidity 71    
Maximum Humidity 97    
Minimum Humidity 44    
Precipitation  
Precipitation 0.00 in 0.10 in 2.24 in (1877)
Month to date precipitation 1.62 2.30  
Year to date precipitation 37.14 31.38  
Snow  
Snow 0.00 in 0.00 in 0.00 in (2002)
Month to date snowfall 0.0 0.0  
Since 1 June snowfall 0.0 0.0  
Since 1 July snowfall 0.0 0.0  
Snow Depth 0.00 in    
Sea Level Pressure  
Sea Level Pressure 30.09 in    
Wind  
Wind Speed 2 mph (NNE)    
Max Wind Speed 12 mph    
Max Gust Speed 16 mph    
Visibility 10 miles    
Events      
T = Trace of Precipitation, MM = Missing Value Source: NWS Daily Summary

Daily Weather History Graph

Daily Weather History Graph

Search for Another Location

Airport:

Trip Planner

Search our weather history database for the weather conditions in past years. The results will help you decide how hot, cold, wet, or windy it might be!

Date:

Astronomy

Aug. 22, 2013 Rise Set
Actual Time 6:10 AM CDT 7:27 PM CDT
Civil Twilight 5:43 AM CDT 7:54 PM CDT
Nautical Twilight 5:11 AM CDT 8:26 PM CDT
Astronomical Twilight 4:38 AM CDT 8:59 PM CDT
Moon 8:17 PM CDT (8/22) 7:53 AM CDT (8/22)
Length of Visible Light 14h 10m
Length of Day
13h 16m
Waning Gibbous, 96% of the Moon is Illuminated
Aug 22
Waning Gibbous
Aug 28
Last Quarter
Sep 5
New
Sep 12
First Quarter
Sep 19
Full

Hourly Weather History & Observations

Time (CDT) Temp. Heat Index Dew Point Humidity Pressure Visibility Wind Dir Wind Speed Gust Speed Precip Events Conditions
12:53 AM 73.0 °F - 70.0 °F 90% 30.13 in 10.0 mi Calm Calm - N/A   Clear
1:53 AM 73.0 °F - 70.0 °F 90% 30.13 in 10.0 mi Calm Calm - N/A   Clear
2:53 AM 72.0 °F - 70.0 °F 93% 30.12 in 10.0 mi Calm Calm - N/A   Clear
3:53 AM 71.1 °F - 69.1 °F 93% 30.11 in 10.0 mi Calm Calm - N/A   Clear
4:53 AM 72.0 °F - 68.0 °F 87% 30.12 in 10.0 mi Calm Calm - N/A   Clear
5:53 AM 70.0 °F - 68.0 °F 93% 30.14 in 10.0 mi Calm Calm - N/A   Partly Cloudy
6:53 AM 71.1 °F - 68.0 °F 90% 30.15 in 10.0 mi Calm Calm - N/A   Mostly Cloudy
7:53 AM 73.0 °F - 70.0 °F 90% 30.15 in 10.0 mi South 3.5 mph - N/A   Scattered Clouds
8:53 AM 80.1 °F 83.2 °F 70.0 °F 71% 30.14 in 10.0 mi Calm Calm - N/A   Scattered Clouds
9:53 AM 82.9 °F 87.5 °F 71.1 °F 67% 30.14 in 10.0 mi Calm Calm - N/A   Scattered Clouds
10:53 AM 84.0 °F 88.4 °F 70.0 °F 63% 30.14 in 10.0 mi Calm Calm - N/A   Scattered Clouds
11:53 AM 86.0 °F 90.7 °F 70.0 °F 59% 30.13 in 10.0 mi ENE 3.5 mph - N/A   Mostly Cloudy
12:53 PM 88.0 °F 93.8 °F 71.1 °F 57% 30.11 in 10.0 mi Calm Calm - N/A   Mostly Cloudy
1:53 PM 89.1 °F 94.1 °F 70.0 °F 53% 30.09 in 10.0 mi ENE 3.5 mph - N/A   Mostly Cloudy
2:53 PM 91.0 °F 93.8 °F 66.0 °F 44% 30.06 in 10.0 mi Calm Calm - N/A   Mostly Cloudy
3:53 PM 89.1 °F 90.3 °F 64.0 °F 43% 30.04 in 10.0 mi NW 6.9 mph - N/A   Mostly Cloudy
4:53 PM 90.0 °F 92.8 °F 66.9 °F 46% 30.03 in 10.0 mi North 10.4 mph - N/A   Mostly Cloudy
5:53 PM 88.0 °F 90.7 °F 66.9 °F 49% 30.03 in 10.0 mi North 6.9 mph - N/A   Scattered Clouds
6:53 PM 86.0 °F 89.4 °F 68.0 °F 55% 30.03 in 10.0 mi North 6.9 mph - N/A   Scattered Clouds
7:53 PM 84.0 °F 87.0 °F 68.0 °F 58% 30.04 in 10.0 mi Calm Calm - N/A   Scattered Clouds
8:53 PM 80.1 °F 82.9 °F 69.1 °F 69% 30.05 in 10.0 mi Calm Calm - N/A   Scattered Clouds
9:53 PM 75.9 °F - 70.0 °F 82% 30.06 in 10.0 mi South 4.6 mph - N/A   Mostly Cloudy
10:53 PM 73.9 °F - 70.0 °F 87% 30.05 in 10.0 mi Calm Calm - N/A   Mostly Cloudy
11:53 PM 73.0 °F - 69.1 °F 87% 30.06 in 10.0 mi SSW 4.6 mph - N/A   Mostly Cloudy